Location: Oakland
(41.0130°N, 74.2650°W)
Time: 09:38:40
(UTC-04:00)

Daily predictions for brighter satellites

Satellite Brightness Start Highest point End
(mag) Time Altitude Azimuth Time Altitude Azimuth Time Altitude Azimuth
DEBRIS 3.3 20:39:06 10° SW 20:42:03 67° SE 20:50:40 10° ENE
COSMOS 2455 4.1 20:42:18 10° NW 20:47:50 39° WSW 20:53:21 10° S
Cosmos 374 Rocket 4.5 20:46:38 10° NW 20:50:23 70° WSW 20:54:24 10° SSE
GENESIS II 4.2 20:48:53 10° NNW 20:52:52 89° ENE 20:56:45 10° SSE
DNEPR-1 R/B 3.6 20:49:54 10° NNW 20:54:10 88° NE 20:58:51 10° SSE
CZ-4B DEB 2.9 20:53:24 10° SSE 20:56:17 48° ENE 20:59:12 10° N
Helios 1B rocket 2.4 20:53:11 10° NNE 20:57:18 66° ESE 21:01:25 10° S
Okean 1-7 Rocket 4.0 20:57:07 10° SSE 21:01:21 44° E 21:05:39 10° NNE
Meteor 1-29 3.0 20:58:25 10° NNE 21:01:45 56° E 21:05:03 10° S
ARGOS 4.5 20:58:39 10° ESE 21:02:56 24° ENE 21:07:14 10° NNE
Cosmos 405 Rocket 3.1 20:59:58 10° SSW 21:03:42 68° W 21:07:33 10° N
Cosmos 1238 Rocket 4.2 20:57:13 10° S 21:03:48 59° E 21:10:05 10° NNE
Aureole 3 Rocket 3.5 20:59:07 10° S 21:05:18 84° E 21:09:42 10° N
OAO 2 Rocket 3.8 21:01:14 10° WSW 21:05:51 41° S 21:10:25 10° ESE
SJ-11-01 4.3 21:02:07 10° SSE 21:06:48 83° ENE 21:11:33 10° NNW
ISS -2.9 21:04:20 10° WSW 21:07:34 52° NNW 21:10:49 10° NE
Aureole 1 Rocket 2.3 21:05:02 10° SSW 21:08:17 80° WNW 21:11:17 10° NNE
Cosmos 1441 Rocket 3.0 21:07:31 10° S 21:11:13 74° E 21:14:58 10° NNE
ASTEX 1 3.5 21:08:59 10° SSE 21:13:47 57° E 21:18:35 10° N
Meteor 1-23 Rocket 4.2 21:10:18 10° S 21:15:47 64° E 21:21:21 10° NNE
Intercosmos 24 4.1 21:13:12 10° N 21:16:49 43° ENE 21:19:46 13° SSE
Cosmos 1025 Rocket 3.0 21:13:34 10° S 21:17:45 59° E 21:21:58 10° NNE
USA 186 4.1 21:16:22 10° SSW 21:18:55 22° W 21:21:27 10° NW
Cosmos 2112 Rocket 4.4 21:13:47 10° SSW 21:18:59 70° WNW 21:24:11 10° NNE
Lacrosse 5 rocket 4.5 21:19:19 10° N 21:20:29 11° N 21:21:39 10° NNE
Okean 2 3.6 21:19:51 10° S 21:23:49 52° E 21:27:48 10° NNE
Cosmos 1624 Rocket 4.2 21:20:49 10° NNW 21:26:04 61° ENE 21:30:26 15° SSE
USA 245 4.2 21:26:05 14° E 21:26:37 14° ENE 21:28:01 10° NE
Cosmos 2082 Rocket 3.0 21:26:01 10° SSE 21:30:52 30° ESE 21:35:43 10° NE
H-2A R/B 3.3 21:28:36 14° ESE 21:31:47 26° ENE 21:35:53 10° NNE
Cosmos 2278 4.2 21:26:37 10° NNW 21:32:08 47° ENE 21:36:16 17° SE
SL-27 R/B 4.0 21:28:43 10° SW 21:32:11 40° WNW 21:35:39 10° N
Cosmos 2058 Rocket 3.9 21:32:25 10° N 21:36:29 35° ENE 21:39:01 19° SE
PSLV R/B 3.8 21:34:30 10° W 21:37:25 38° SSW 21:38:46 24° SSE
MOS 1-B Rocket 4.1 21:32:35 14° SSE 21:37:32 64° ENE 21:44:01 10° N
Cosmos 2181 Rocket 4.3 21:31:33 10° SSE 21:37:32 48° E 21:43:32 10° NNE
Meteor 1-15 Rocket 4.2 21:32:00 10° N 21:37:37 81° E 21:42:38 13° SSE
YAOGAN 11 4.4 21:38:19 19° SE 21:41:08 49° ENE 21:45:21 10° N
Cosmos 2056 Rocket 3.4 21:40:23 10° NNW 21:45:34 84° ENE 21:49:16 19° SSE
YAOGAN 6 3.4 21:43:14 11° S 21:46:27 47° W 21:49:51 10° NNW
Meteor 1-4 Rocket 4.1 21:45:34 10° NNE 21:48:18 20° ENE 21:49:11 19° E
Cosmos 1697 Rocket 3.7 21:45:08 10° N 21:50:12 33° ENE 21:53:32 18° ESE
Cosmos 2369 3.8 21:46:40 10° NNW 21:52:24 67° ENE 21:56:03 23° SE
Cosmos 1656 4.1 21:48:19 10° NNW 21:53:36 48° ENE 21:56:49 23° SE
Cosmos 839 Rocket 4.4 21:47:00 10° NNW 21:53:37 79° ENE 21:59:18 21° SE
H-2A R/B 3.8 21:54:53 16° E 21:56:43 20° ENE 22:00:02 10° NNE
Cosmos 962 Rocket 4.4 21:51:43 10° N 21:57:59 84° E 22:02:44 18° S
NOSS 8 (F) 4.5 21:55:58 10° SW 21:59:29 82° NW 22:03:06 10° NNE
Tiangong 2 1.5 21:58:58 10° W 22:02:08 60° N 22:04:05 20° ENE
Meteor 2-19 Rocket 4.5 21:58:19 10° N 22:04:28 84° W 22:09:15 18° S
Cosmos 1833 Rocket 2.8 22:01:02 13° S 22:05:54 55° ESE 22:11:23 10° NNE
MetOp-A 4.3 22:02:23 18° S 22:06:25 73° WSW 22:11:47 10° NNW
Cosmos 1626 Rocket 4.4 22:05:32 29° ESE 22:06:32 32° E 22:10:24 10° NNE
COSMOS 2487 2.6 22:10:53 17° SSW 22:13:33 74° WNW 22:17:08 10° NNE
Terra 2.8 22:12:16 25° ESE 22:14:00 32° ENE 22:18:13 10° N
Cosmos 1437 Rocket 3.9 22:11:08 10° NNW 22:14:43 38° W 22:17:17 17° SSW
SL-8 Rocket 4.0 22:09:06 10° N 22:15:22 70° E 22:18:59 27° SSE
Cosmos 1271 Rocket 4.5 22:14:06 10° NNE 22:16:59 19° ENE 22:17:24 19° E
Cosmos 1452 Rocket 3.6 22:12:12 10° NNW 22:17:28 67° ENE 22:19:50 33° SE
TELKOM 3 3.4 22:18:00 10° NW 22:20:27 76° NNE 22:20:42 69° E
Cosmos 2228 2.9 22:16:35 10° N 22:20:53 88° W 22:22:37 36° S
SPOT 5 2.8 22:18:47 28° S 22:20:57 68° WSW 22:25:18 10° NNW
Cosmos 2366 rocket 4.1 22:15:37 10° N 22:21:40 57° E 22:24:34 31° SE
Cosmos 921 Rocket 3.5 22:18:19 10° NNW 22:22:43 57° WSW 22:24:47 28° S
SPOT 1/Viking Rocket 3.5 22:20:35 30° SSE 22:23:11 86° ENE 22:28:22 10° NNW
Cosmos 1066 Rocket 4.1 22:20:34 24° S 22:23:59 76° E 22:29:38 10° NNE
ERS-1 Rocket 4.3 22:21:27 12° SSW 22:25:32 34° W 22:30:06 10° NNW
Cosmos 1544 4.5 22:35:29 10° NNE 22:38:17 25° ENE 22:38:17 25° ENE
Cosmos 1980 Rocket 2.7 22:33:33 10° NNW 22:39:02 48° ENE 22:41:05 33° ESE
Cosmos 1953 4.2 22:36:23 10° NNE 22:39:17 19° ENE 22:39:20 19° ENE
Cosmos 1602 Rocket 3.4 22:40:41 51° S 22:41:44 79° E 22:46:04 10° N
ARGOS 4.0 22:39:41 22° SSW 22:42:52 45° W 22:48:05 10° NNW
Cosmos 468 4.4 22:41:30 28° SSW 22:44:20 87° ESE 22:49:39 10° NNE
ISS -0.6 22:42:30 10° NW 22:44:38 16° NNW 22:46:47 10° NNE
SL-08 RB Rocket 4.5 22:44:22 28° SSW 22:46:13 43° W 22:50:30 10° NNW
Cosmos 2322 Rocket 3.8 22:45:24 10° N 22:49:55 23° NE 22:52:24 18° E
Meteor 1-21 4.3 22:49:13 42° SSE 22:50:58 63° E 22:56:40 10° NNE
Cosmos 1766 3.2 22:47:05 10° N 22:50:59 67° E 22:51:05 67° E
USA 229 DEB 4.0 22:45:09 10° NNW 22:52:16 64° NE 22:55:40 33° ESE
USA 229 4.0 22:45:15 10° NNW 22:52:22 64° NE 22:55:46 33° ESE
deb Chang Zheng 4 3.5 22:49:49 10° NNE 22:54:07 64° ESE 22:54:23 62° SE
CZ-3A R/B 3.3 22:55:03 10° WNW 22:55:14 11° WNW 22:55:14 11° WNW
Meteor 2-14 Rocket 4.3 22:50:32 10° N 22:56:38 84° E 22:58:47 43° SSE
Timation 2 Rocket 3.9 22:52:16 22° SSW 22:56:38 88° ESE 23:02:49 10° NNE
Lacrosse 5 rocket 3.8 22:57:52 10° NNW 23:01:22 21° NNE 23:04:31 11° ENE
Cosmos 2218 Rocket 4.3 22:57:32 10° NNW 23:03:34 59° W 23:06:28 31° SSW
Cosmos 158 Rocket 3.9 23:02:36 45° SSW 23:04:18 85° ESE 23:09:43 10° NNE
CARTOSAT-1 3.6 23:07:09 62° SSW 23:07:39 70° WSW 23:11:58 10° NNW
DELTA 2 DEB (DPAF) 4.5 23:08:27 50° E 23:08:46 51° ENE 23:13:07 10° N
H-2A R/B 3.0 23:09:14 28° SW 23:11:00 37° W 23:15:40 10° NNW
CZ-2C R/B 4.3 23:08:05 10° NE 23:11:39 19° E 23:11:39 19° E
Cosmos 2082 Rocket 3.5 23:09:30 10° SW 23:14:47 39° WNW 23:20:04 10° N
CZ-4B R/B 3.4 23:10:12 10° NNE 23:15:19 71° ESE 23:16:02 61° SSE
Meteor 2-16 Rocket 4.5 23:12:32 10° N 23:18:40 75° W 23:20:37 46° SSW
CZ-4 R/B 3.9 23:14:15 10° NNE 23:19:18 88° WNW 23:20:15 60° SSW
Cosmos 1805 3.4 23:17:20 10° N 23:20:47 67° N 23:20:47 67° N
Cosmos 1758 3.7 23:17:44 10° N 23:21:12 57° NE 23:21:12 57° NE
IGS 5A 4.1 23:25:25 44° WSW 23:25:33 45° W 23:29:34 10° NNW
Nadezhda 3 Rocket 4.0 23:27:58 48° S 23:29:58 86° W 23:36:22 10° N
Cosmos 1758 Rocket 3.9 23:30:38 55° ENE 23:30:38 55° ENE 23:34:22 10° NNE
H-2A R/B 3.0 23:32:00 39° WSW 23:32:26 40° W 23:36:43 10° NNW
Cosmos 1697 Rocket 3.6 23:29:05 10° NW 23:34:07 35° WSW 23:35:16 32° SW
ATLAS CENTAUR R/B 2.6 23:31:39 10° NNW 23:34:34 30° NE 23:34:34 30° NE
Cosmos 2239 Rocket 4.4 23:29:52 10° N 23:36:04 73° E 23:37:17 57° SE
Tiangong 2 3.9 23:35:48 10° WNW 23:36:16 14° WNW 23:36:16 14° WNW
Cosmos 2360 4.2 23:33:28 10° NNW 23:39:09 68° WSW 23:39:55 60° SSW
SL-16 R/B 2.5 23:37:02 10° NNW 23:42:38 56° ENE 23:43:34 50° E
Cosmos 1821 Rocket 3.9 23:39:01 10° N 23:45:21 84° E 23:46:36 60° SSE
CZ-4C R/B 4.3 23:48:47 40° NW 23:48:47 40° NW 23:51:19 10° NNW
Cosmos 389 Rocket 4.0 23:46:02 10° NNW 23:48:14 35° NNW 23:48:14 35° NNW
Terra 3.3 23:51:10 26° WSW 23:51:44 26° W 23:55:44 10° NW
Cosmos 972 Rocket 3.8 23:46:34 10° NNW 23:51:45 79° ENE 23:51:48 79° E
Cosmos 1331 Rocket 3.8 23:47:00 10° NNW 23:52:12 81° ENE 23:52:20 80° E
Cosmos 1271 Rocket 4.4 23:49:39 10° NNW 23:52:36 27° W 23:52:36 27° W
